Wind_Speed
29 28 28 28 29 29 30 30 31 30 30 30 31 31 32 33 33 33 34 34 34 34 35 37 39 41 42 43 44 45 46 47 48 50 50 51 51 51 52 53 54 55 55 55
29 29 29 29 29 29 30 30 30 31 31 30 31 32 32 33 34 33 34 34 33 33 33 34 36 38 39 40 42 43 45 46 46 48 49 49 50 51 52 52 53 54 55 55
30 29 29 29 28 29 29 29 30 31 31 31 31 32 32 32 33 33 32 31 31 31 32 32 33 35 37 38 40 41 43 44 45 47 47 48 49 49 50 50 51 52 52 53
30 29 30 29 29 29 29 29 29 30 30 30 31 31 31 31 32 32 32 31 31 31 31 31 32 34 36 38 39 40 41 43 44 45 46 47 47 48 48 48 49 50 50 50
30 30 30 29 29 29 29 28 28 28 29 30 30 30 29 30 30 31 32 32 32 32 32 32 32 33 35 36 37 38 39 41 43 44 45 45 46 46 47 48 49 49 49 50
29 30 30 28 28 28 28 28 28 29 30 30 30 30 28 29 30 30 30 31 32 33 32 32 32 32 33 35 36 37 39 40 42 43 44 44 45 45 46 46 47 48 49 49
28 29 29 28 28 28 28 29 28 29 30 30 30 30 29 29 29 29 30 31 32 33 32 32 32 32 32 34 35 36 37 39 40 41 43 43 43 44 45 45 46 46 47 48
28 29 28 28 29 28 29 29 29 29 29 30 30 29 29 29 29 30 30 30 32 32 32 32 32 32 32 33 34 35 36 37 38 39 41 41 42 43 43 43 44 44 45 47
28 28 28 29 30 29 29 29 29 29 29 30 29 29 29 30 30 30 30 30 31 32 32 33 33 33 33 33 33 34 35 35 37 38 39 40 41 42 42 42 42 43 44 44
28 28 29 30 30 30 30 30 30 29 29 29 29 29 29 29 30 30 30 30 30 31 32 32 33 34 34 33 33 33 34 35 35 37 38 39 40 41 41 41 41 42 43 43
30 30 31 30 30 30 31 31 31 30 30 30 30 29 29 29 29 30 30 30 30 30 32 33 33 33 33 33 33 33 34 34 34 35 36 36 37 38 39 40 41 42 42 43
30 30 31 30 30 31 31 31 31 31 31 31 31 30 29 29 29 30 30 29 29 29 30 31 32 32 32 33 33 33 33 34 34 34 34 35 36 37 38 39 39 40 41 42
31 31 31 31 31 31 31 31 31 31 31 31 31 30 29 29 29 29 29 28 28 29 29 30 30 31 31 32 32 32 32 33 33 34 34 34 35 35 36 37 38 39 39 40
30 31 31 31 31 31 31 31 30 30 30 30 30 29 29 28 28 28 28 28 28 28 28 29 29 30 31 31 32 32 32 32 32 32 32 32 33 33 34 36 37 37 38 38
30 31 31 31 31 30 30 30 30 30 29 30 29 29 28 28 28 27 27 27 27 27 27 28 28 29 30 31 31 31 32 31 31 31 31 31 31 32 32 33 35 36 36 37
31 31 31 31 30 30 30 30 30 30 30 30 29 28 28 28 27 26 26 26 26 26 27 27 28 29 30 30 31 31 31 31 31 31 31 32 32 32 32 33 33 33 34 35
31 30 30 30 30 30 29 29 30 30 29 28 27 27 26 26 26 25 25 25 25 25 26 26 27 28 28 29 30 30 31 31 31 31 31 31 32 32 32 33 33 33 33 33
30 30 30 30 29 29 28 29 29 28 28 27 26 25 25 25 25 24 24 24 24 24 25 25 26 26 27 27 28 29 29 29 30 30 31 31 31 31 31 31 31 32 32 33
29 29 29 29 29 28 28 28 28 27 27 26 25 25 25 25 24 24 23 23 23 23 24 25 25 26 26 26 27 27 28 29 29 30 30 30 30 30 30 30 30 31 31 31
29 29 28 28 29 29 29 28 27 26 26 26 25 25 25 25 24 24 24 24 24 24 24 25 25 26 26 26 26 27 28 28 28 29 29 29 30 30 30 29 29 30 30 31
29 28 28 28 28 29 28 27 26 26 26 25 25 25 24 24 24 24 24 24 24 25 25 25 25 25 26 26 26 27 27 27 28 28 28 28 28 28 29 29 29 29 30 30
28 28 28 28 28 27 27 26 26 25 25 25 25 24 24 24 24 24 24 25 25 25 25 26 26 26 26 27 26 26 26 26 27 27 27 27 27 27 28 28 29 29 29 30
28 27 27 27 27 26 26 26 25 25 25 25 25 24 24 24 25 25 25 25 25 25 26 26 27 27 27 27 27 27 26 26 26 26 26 26 27 27 27 27 27 28 28 28
27 26 26 26 26 26 26 26 25 25 25 25 24 24 25 25 25 26 26 26 27 27 27 28 28 28 28 28 27 27 27 26 26 26 26 26 26 26 26 26 27 27 27 27
26 25 25 25 25 25 25 25 25 25 25 25 25 25 26 26 27 27 27 28 28 29 29 29 29 29 29 29 28 28 27 27 26 26 26 26 26 26 27 27 27 27 28 28
26 26 26 26 26 26 26 25 25 25 25 25 26 26 27 28 28 28 28 29 30 30 30 30 30 30 30 29 29 28 28 27 27 26 26 26 27 27 27 28 28 28 28 28
26 26 26 26 26 26 26 26 26 26 26 27 27 27 28 28 29 30 30 30 31 31 30 30 30 30 29 29 29 28 27 27 27 27 27 26 26 27 27 28 28 28 28 29
Wind_Direction
296 296 295 294 290 287 286 286 285 285 282 281 278 274 273 272 270 269 267 267 264 262 261 259 257 254 253 253 251 250 249 249 249 249 250 249 249 249 249 251 251 252 252 253
292 293 293 293 291 288 287 286 285 285 284 283 280 277 274 272 271 269 268 266 264 261 261 260 257 254 253 253 252 251 250 250 250 250 251 251 250 250 250 251 252 252 252 252
292 292 292 292 294 293 290 288 286 286 286 283 281 280 276 272 270 269 268 265 262 261 262 261 258 255 252 253 253 253 252 250 250 251 251 252 253 252 252 252 252 253 253 253
293 293 293 296 295 295 292 291 289 288 287 284 282 280 277 273 270 268 267 265 262 260 261 261 259 257 254 253 252 253 252 251 251 252 253 253 254 254 253 252 252 253 253 253
294 295 295 296 297 297 294 292 291 289 287 285 284 281 279 276 272 270 269 267 265 262 261 262 261 259 257 255 254 254 254 254 254 254 254 253 254 254 254 254 253 253 253 253
294 294 296 300 299 299 296 294 293 292 292 290 287 283 280 277 274 273 271 269 267 264 262 261 262 260 258 257 256 256 256 257 257 255 254 254 254 254 255 255 255 255 254 253
295 295 297 299 300 300 299 300 297 294 293 292 289 285 280 277 276 273 272 269 267 266 263 262 262 261 260 259 258 257 257 259 259 257 255 253 254 254 255 255 256 255 254 254
296 296 297 297 298 298 299 300 298 296 294 292 290 287 282 279 277 275 273 272 269 267 265 263 263 263 262 261 260 259 259 260 260 259 257 255 255 256 256 256 255 255 255 255
296 297 297 296 296 297 298 298 298 296 295 293 291 288 284 280 278 277 275 273 271 267 265 264 264 263 264 263 262 262 261 261 260 259 258 258 258 258 257 257 256 256 256 256
294 295 296 296 295 294 295 296 297 296 295 293 291 290 287 283 279 278 276 274 272 269 267 266 265 264 264 264 264 264 263 262 261 260 259 259 259 259 258 258 258 258 258 257
293 294 294 294 294 294 294 294 295 295 294 292 291 290 289 285 281 279 277 275 273 271 269 267 267 266 266 265 265 266 265 263 262 261 260 260 260 260 259 259 259 260 259 259
294 294 294 295 295 294 293 293 293 293 293 292 291 290 289 287 282 279 277 275 273 272 270 269 268 268 267 266 266 266 266 265 264 264 263 261 261 261 262 261 261 260 260 260
294 294 295 295 294 294 294 294 293 293 292 292 291 290 289 288 285 281 278 275 273 273 272 271 270 269 269 268 268 268 268 267 266 265 264 263 262 261 261 261 261 261 260 260
294 295 296 295 294 294 294 293 294 293 293 293 292 290 289 288 287 283 278 274 273 273 273 272 270 270 270 269 269 268 269 269 268 267 264 263 263 262 262 261 261 261 261 261
294 296 297 296 296 296 295 295 294 294 294 294 294 292 289 287 287 284 279 276 274 273 273 273 272 271 271 271 270 269 269 269 269 268 266 264 263 263 263 262 261 260 260 260
295 296 297 297 297 297 296 296 295 294 294 294 294 292 290 288 286 284 280 276 275 274 275 275 275 273 273 272 272 271 270 270 270 269 267 265 265 264 263 262 262 261 261 260
296 296 296 296 296 297 297 296 295 295 295 295 294 292 290 288 287 284 280 277 277 277 277 277 277 276 275 274 273 272 271 270 270 269 268 267 266 265 264 262 261 261 261 261
298 298 298 298 297 297 298 297 296 295 294 293 293 292 290 289 288 285 280 278 278 278 279 279 279 278 277 276 275 273 271 270 269 269 268 267 266 266 264 263 262 261 261 262
300 300 299 299 299 299 298 298 297 296 294 292 291 291 290 288 288 285 282 280 279 280 280 281 281 280 280 279 278 275 273 271 270 270 269 268 267 266 266 265 264 263 262 262
300 300 300 300 300 299 299 298 297 295 294 293 292 291 290 289 288 286 284 282 280 279 280 281 281 281 281 280 279 278 276 274 273 271 270 269 268 267 266 265 264 263 263 264
301 300 300 300 300 299 299 298 297 295 294 293 292 292 291 290 289 288 286 283 282 282 282 282 282 281 281 282 281 280 279 277 275 272 271 270 269 267 266 265 265 264 264 264
302 301 300 300 300 300 299 298 296 295 293 293 292 291 290 290 289 289 287 286 285 284 284 283 282 283 283 282 281 281 280 278 277 274 272 270 269 267 266 265 265 265 265 265
304 303 302 302 301 300 298 297 297 295 294 293 292 291 290 290 289 289 288 287 287 287 286 285 284 284 284 283 281 280 280 279 277 275 272 271 269 268 267 266 265 265 266 266
305 304 304 303 302 301 299 297 296 296 295 294 293 292 292 292 291 290 289 288 288 288 287 286 285 284 284 284 282 280 279 279 277 275 272 271 270 269 267 266 266 266 266 266
306 306 306 305 304 304 302 299 297 295 294 293 293 293 293 293 292 290 289 289 288 288 288 287 285 284 283 283 281 280 279 278 277 275 273 272 270 269 267 266 266 267 267 268
305 306 306 305 305 304 303 301 298 296 295 295 294 293 293 293 293 292 291 290 289 289 289 287 285 283 283 282 281 279 278 277 275 275 274 273 272 269 268 267 268 268 269 269
305 305 306 306 305 305 304 302 300 299 298 297 297 296 295 294 293 293 292 292 291 291 290 287 284 282 282 281 280 278 277 276 275 275 274 273 272 270 269 268 268 268 269 269
Height
5526 5523 5521 5519 5517 5515 5513 5511 5509 5509 5507 5507 5506 5505 5504 5505 5505 5505 5505 5505 5506 5506 5507 5508 5510 5512 5514 5517 5520 5523 5526 5529 5533 5537 5540 5543 5547 5550 5554 5557 5560 5563 5567 5570
5519 5516 5513 5511 5510 5508 5506 5504 5502 5500 5500 5499 5497 5495 5495 5495 5495 5495 5495 5495 5496 5496 5497 5497 5499 5501 5503 5506 5508 5511 5514 5517 5521 5524 5527 5530 5533 5536 5539 5542 5545 5548 5552 5555
5510 5508 5505 5504 5504 5501 5498 5496 5494 5492 5492 5490 5488 5487 5486 5486 5485 5485 5485 5485 5486 5487 5487 5488 5489 5491 5493 5495 5497 5500 5503 5505 5508 5511 5514 5517 5520 5522 5525 5528 5531 5534 5537 5540
5502 5500 5497 5500 5496 5493 5490 5489 5487 5484 5483 5481 5479 5478 5477 5476 5475 5475 5476 5476 5477 5477 5478 5479 5479 5481 5483 5485 5487 5489 5491 5493 5496 5498 5502 5504 5507 5509 5512 5514 5517 5520 5523 5526
5494 5491 5490 5491 5488 5485 5482 5481 5479 5477 5475 5473 5470 5469 5469 5467 5466 5466 5466 5467 5467 5468 5468 5469 5470 5471 5473 5474 5476 5478 5480 5482 5484 5486 5489 5491 5494 5496 5499 5501 5504 5506 5509 5512
5487 5484 5482 5484 5481 5477 5475 5473 5472 5469 5466 5464 5462 5461 5461 5459 5457 5457 5457 5457 5458 5458 5459 5460 5461 5461 5463 5464 5466 5468 5469 5471 5473 5474 5476 5478 5481 5483 5485 5488 5490 5493 5495 5498
5480 5477 5476 5476 5473 5470 5468 5467 5463 5460 5457 5455 5453 5452 5452 5450 5449 5448 5448 5448 5448 5449 5450 5450 5451 5452 5453 5454 5456 5457 5458 5460 5461 5462 5464 5466 5468 5470 5472 5475 5477 5479 5482 5484
5474 5471 5472 5468 5465 5463 5461 5458 5454 5451 5449 5446 5445 5443 5442 5441 5440 5439 5439 5439 5439 5440 5440 5441 5442 5443 5444 5444 5445 5447 5448 5449 5450 5450 5452 5454 5455 5457 5459 5461 5463 5465 5468 5470
5468 5467 5464 5460 5457 5455 5452 5450 5447 5444 5441 5438 5436 5434 5433 5432 5431 5430 5430 5430 5430 5430 5431 5432 5432 5433 5434 5434 5435 5436 5437 5438 5438 5439 5440 5442 5443 5445 5447 5448 5450 5452 5454 5457
5460 5459 5456 5453 5450 5447 5444 5441 5439 5436 5433 5430 5428 5426 5424 5423 5422 5421 5420 5420 5420 5421 5421 5422 5422 5423 5423 5424 5425 5425 5426 5427 5427 5428 5429 5430 5431 5433 5434 5436 5438 5440 5442 5443
5452 5451 5448 5445 5442 5439 5436 5433 5431 5428 5425 5422 5420 5418 5416 5414 5413 5412 5411 5411 5411 5411 5411 5412 5412 5413 5413 5414 5415 5415 5416 5416 5416 5417 5418 5419 5419 5421 5422 5424 5425 5427 5429 5430
5445 5442 5439 5437 5434 5431 5428 5425 5422 5420 5417 5414 5412 5409 5407 5405 5404 5403 5402 5402 5401 5401 5402 5402 5402 5403 5403 5403 5404 5405 5405 5405 5406 5406 5406 5407 5408 5409 5410 5412 5413 5414 5415 5417
5436 5433 5430 5428 5425 5422 5419 5417 5414 5411 5408 5406 5403 5401 5398 5397 5395 5394 5393 5392 5392 5392 5392 5392 5392 5393 5393 5393 5393 5394 5394 5395 5395 5395 5395 5396 5397 5398 5399 5400 5401 5402 5403 5404
5427 5425 5422 5420 5417 5414 5411 5408 5405 5402 5400 5397 5394 5392 5390 5388 5386 5385 5384 5383 5383 5383 5383 5383 5383 5383 5383 5383 5383 5383 5384 5384 5384 5384 5385 5385 5386 5387 5388 5389 5390 5391 5392 5393
5419 5416 5413 5410 5408 5405 5402 5399 5397 5394 5391 5389 5386 5383 5381 5380 5378 5376 5375 5374 5374 5374 5373 5373 5373 5373 5373 5373 5373 5373 5373 5374 5374 5374 5374 5375 5376 5376 5377 5378 5379 5379 5380 5381
5412 5408 5405 5402 5399 5396 5393 5391 5388 5386 5383 5380 5378 5375 5373 5371 5369 5368 5367 5366 5365 5365 5364 5364 5364 5363 5363 5363 5363 5363 5363 5363 5363 5363 5364 5364 5365 5366 5366 5367 5368 5368 5369 5370
5403 5400 5397 5394 5391 5388 5385 5382 5380 5377 5375 5372 5370 5367 5365 5363 5361 5360 5359 5358 5357 5357 5356 5355 5355 5354 5354 5353 5353 5353 5353 5353 5353 5353 5354 5354 5355 5355 5356 5356 5357 5357 5358 5359
5394 5391 5388 5385 5383 5380 5377 5374 5372 5369 5367 5364 5362 5360 5358 5356 5354 5352 5351 5350 5350 5349 5348 5347 5346 5346 5345 5344 5344 5343 5343 5343 5343 5343 5344 5344 5344 5345 5345 5345 5346 5347 5347 5348
5386 5383 5380 5377 5374 5372 5369 5366 5364 5361 5359 5357 5355 5353 5350 5348 5347 5345 5344 5343 5342 5342 5341 5339 5338 5337 5336 5336 5335 5334 5334 5333 5333 5333 5334 5334 5334 5335 5335 5335 5336 5336 5337 5337
5379 5376 5373 5370 5367 5364 5361 5359 5356 5353 5351 5349 5347 5345 5343 5341 5340 5338 5337 5336 5335 5334 5333 5331 5330 5329 5328 5327 5326 5325 5324 5324 5323 5323 5323 5324 5324 5325 5325 5325 5326 5326 5327 5327
5371 5368 5365 5362 5359 5356 5353 5351 5348 5346 5344 5342 5340 5338 5336 5334 5332 5331 5329 5328 5327 5326 5324 5323 5322 5321 5320 5319 5317 5316 5315 5315 5314 5314 5314 5314 5314 5314 5315 5315 5316 5316 5317 5317
5363 5360 5357 5354 5351 5348 5346 5343 5341 5339 5336 5334 5332 5330 5328 5327 5325 5323 5322 5321 5319 5317 5316 5315 5314 5312 5311 5310 5309 5307 5306 5305 5305 5304 5304 5304 5305 5305 5305 5306 5306 5306 5307 5307
5355 5352 5349 5346 5344 5341 5338 5336 5333 5331 5329 5327 5325 5323 5321 5319 5317 5316 5314 5313 5311 5309 5308 5306 5305 5303 5302 5300 5299 5298 5297 5296 5296 5295 5295 5295 5295 5295 5296 5296 5296 5297 5297 5298
5348 5345 5342 5339 5336 5333 5331 5328 5326 5324 5321 5319 5317 5315 5313 5312 5310 5308 5306 5304 5302 5300 5299 5297 5295 5294 5292 5291 5290 5289 5288 5287 5286 5286 5286 5286 5286 5286 5286 5286 5287 5287 5288 5288
5341 5338 5335 5332 5329 5326 5323 5321 5319 5316 5314 5312 5310 5308 5305 5303 5301 5299 5297 5295 5293 5291 5289 5287 5286 5284 5283 5282 5280 5279 5279 5278 5277 5277 5277 5276 5276 5277 5277 5277 5277 5278 5278 5278
5334 5331 5328 5325 5322 5319 5316 5314 5311 5309 5306 5304 5302 5299 5297 5295 5292 5290 5288 5286 5283 5281 5279 5277 5275 5274 5273 5272 5270 5270 5269 5268 5268 5267 5267 5267 5267 5267 5267 5267 5268 5268 5268 5268
5327 5324 5321 5318 5315 5312 5309 5306 5304 5301 5298 5296 5294 5291 5288 5286 5283 5281 5278 5276 5273 5271 5269 5266 5265 5264 5263 5262 5261 5260 5259 5258 5258 5258 5257 5257 5257 5257 5257 5257 5258 5258 5258 5258